Vertical_Velocity
-1 0 -2 -6 0 2 1 0 1 -0 1 2 2 2 1 1 4 0 2 6 3 3 3 0 1 2 3 -6 -5 1 4 4 -2 17 -1 3 3 7 5 -2 -1 -9 -1
0 2 0 0 3 3 4 3 3 4 2 3 1 1 2 3 6 3 3 5 3 2 2 -0 1 3 1 -6 20 -2 2 0 -3 -8 7 9 -3 2 3 8 -3 -7 -9
-0 -1 1 1 5 4 -1 -3 1 3 2 3 4 4 3 2 -1 1 2 1 2 1 3 1 6 1 6 5 -1 5 1 -2 5 -5 10 2 1 3 1 -3 -2 -5 1
1 0 2 2 0 -3 7 -1 -2 -3 -3 -3 -1 1 2 -0 -2 -1 -0 6 1 2 2 -0 5 -3 -3 -5 3 5 15 11 9 -1 1 4 -0 4 4 1 -2 -1 -8
-2 -2 -1 -1 -3 -4 -4 -5 0 0 -3 -4 -6 -5 -3 -1 1 2 -1 -1 -6 -6 -3 -4 -7 -2 -1 9 9 9 -7 -5 1 -1 -1 -0 2 1 -3 -6 -3 -4 -2
1 1 -2 -3 -1 2 2 -6 -7 -4 -1 -1 1 1 -0 -2 -3 -0 -1 0 6 10 7 -1 -8 -3 1 -4 -6 5 1 -2 2 -2 -4 2 -4 -4 -6 -9 0 3 -1
-3 -3 -2 0 0 1 -6 -5 -1 -5 -6 -6 -5 -2 0 0 -3 -0 1 3 1 -1 -2 -1 -1 -2 5 9 2 -2 1 -1 1 -1 -4 -4 -2 -3 -3 -2 1 -2 -1
-0 -3 -1 -2 -3 -3 1 1 -4 -4 -8 -2 2 -3 -8 -4 -4 -0 -7 -5 -5 -1 -1 -1 7 1 18 1 0 -2 -3 -7 2 -0 -3 -2 0 2 2 1 1 -2 -1
1 0 -0 1 -0 -3 -3 -2 1 2 -2 -3 -9 -7 0 -0 2 -7 -7 -3 1 5 9 5 4 -1 6 -0 2 0 -1 2 3 3 0 1 0 1 1 0 0 0 1
-2 -1 -1 -2 -1 0 2 -2 -3 -0 -2 -0 1 -2 -3 -5 -3 4 3 2 20 9 11 10 10 16 27 10 1 25 -3 -1 1 3 4 2 -1 -2 -3 -2 -1 -4 -7
-1 -1 0 -1 -1 -2 -1 -3 -1 -2 -2 -2 -2 -2 -1 -1 -0 4 2 4 3 -2 -3 0 1 0 0 -0 1 1 3 2 2 -1 -1 0 1 2 3 4 3 2 -0
-1 -0 -1 0 -0 -1 0 -0 1 2 2 0 1 1 -0 -2 -4 -5 -3 -3 -1 -2 1 2 1 1 2 2 2 2 2 3 5 4 3 2 0 -1 -3 -1 -3 -4 -2
-0 0 -0 -0 -0 -0 -1 -1 -1 -2 -2 -1 -1 -2 -1 0 1 3 4 4 3 3 3 3 3 3 3 2 1 1 3 2 0 1 3 3 1 3 -1 1 -1 -3 1
2 2 2 3 3 2 2 1 0 1 1 1 1 1 0 -1 -2 -3 -4 -3 -3 -3 -2 -0 1 1 2 2 3 3 3 3 3 1 0 -1 -0 1 0 1 5 2 4
-0 0 0 1 0 1 3 4 5 6 6 5 4 3 2 1 1 2 2 2 2 3 2 2 2 3 5 4 2 1 -2 -4 -1 -0 -0 0 -1 1 -0 -0 -1 2 2
3 3 3 3 2 2 0 -1 0 -0 -1 -2 -2 -1 -1 -0 1 1 2 1 1 -0 -1 -1 -1 -1 -0 -0 -0 1 1 2 2 1 1 0 1 -1 2 -3 -1 2 5
-3 -4 -3 -3 -3 -3 -4 -3 -3 -2 -2 -1 -0 -1 -1 -1 -1 -0 0 1 1 1 2 2 2 1 -1 -2 -1 -3 -3 -2 -1 -1 0 1 1 -1 1 3 4 0 0
-1 -2 -1 -1 -2 -1 -1 -0 -0 -0 -1 -1 -1 -3 -1 -0 2 3 2 2 -0 1 2 1 1 0 0 2 2 3 3 3 0 0 -0 1 0 0 -2 -4 -2 -0 -2
3 0 3 2 0 -0 -1 1 1 0 1 -0 -1 -1 2 -0 -0 1 1 1 0 2 2 1 -1 -0 -0 0 -1 0 1 1 -1 -1 -0 -3 -2 -1 -4 -4 -2 -5 -6
1 -1 0 -0 -1 -2 -1 1 -0 1 2 -1 1 -1 1 1 -1 1 0 1 2 2 -0 2 1 -0 0 -0 -1 -2 -1 -1 0 0 -2 -2 -1 -1 -3 -3 -6 -3 -5
0 -1 1 3 -1 -1 -0 0 1 1 1 2 3 -1 -1 3 -0 2 2 1 2 -0 1 -1 -1 1 0 2 -0 -1 0 -2 -3 -1 -2 -3 -2 -4 -6 -4 -2 -4 -5
1 -0 -3 2 -2 -2 1 2 2 3 3 3 2 3 3 5 1 -0 1 2 1 -1 2 1 3 1 2 3 1 -0 -0 -1 -1 -3 -2 -0 -1 -1 -1 -2 -5 -6 -6
-2 -1 1 2 1 -1 0 2 -0 0 1 1 1 2 2 4 4 3 2 2 -0 2 -0 1 2 0 2 2 1 -0 -1 -1 -0 -0 -1 -1 -2 -3 -4 -5 -7 -4 -5
1 1 1 1 0 0 -0 0 -0 -0 1 1 2 4 5 4 4 3 0 -1 2 2 -1 1 0 2 3 1 2 2 2 2 0 1 0 -2 -4 -7 -6 -4 -4 -5 -2
-2 -2 -1 1 0 -1 -0 0 1 -1 0 1 2 4 2 3 3 1 2 2 4 0 -1 -0 -2 -1 2 3 2 1 1 -1 -1 -0 -1 -3 -3 -5 -6 -2 -3 -4 -3
0 1 -0 -0 -1 -2 -0 -0 -2 -5 -3 4 4 -1 3 2 5 6 4 4 2 2 1 1 0 1 2 2 1 1 1 2 2 -1 -3 -4 -4 -4 -5 -5 -3 -2 -3
Height
5617 5621 5625 5629 5634 5638 5639 5639 5639 5640 5641 5644 5646 5648 5653 5658 5662 5665 5670 5675 5681 5687 5693 5699 5706 5711 5717 5721 5723 5728 5730 5730 5729 5731 5734 5733 5734 5734 5731 5729 5725 5724 5723
5613 5617 5622 5626 5629 5632 5632 5631 5629 5628 5628 5629 5631 5633 5636 5638 5642 5644 5648 5653 5658 5665 5672 5678 5688 5695 5700 5708 5703 5711 5714 5716 5717 5719 5721 5719 5717 5719 5717 5714 5712 5710 5711
5618 5620 5624 5626 5627 5627 5623 5618 5615 5614 5612 5612 5612 5613 5615 5616 5618 5623 5628 5632 5639 5645 5654 5660 5669 5675 5684 5691 5694 5698 5701 5703 5702 5702 5708 5705 5705 5703 5700 5699 5697 5696 5694
5621 5622 5623 5624 5624 5623 5618 5610 5602 5601 5599 5597 5595 5595 5596 5598 5599 5602 5608 5616 5621 5630 5639 5647 5655 5662 5671 5678 5682 5683 5687 5687 5687 5689 5693 5691 5690 5689 5684 5684 5684 5683 5682
5626 5625 5624 5621 5622 5622 5616 5608 5600 5595 5593 5590 5585 5583 5583 5583 5583 5585 5589 5597 5606 5617 5628 5636 5643 5651 5658 5664 5664 5667 5671 5672 5673 5674 5676 5675 5675 5673 5671 5672 5671 5670 5669
5634 5631 5627 5624 5623 5622 5617 5609 5602 5595 5590 5586 5582 5580 5578 5576 5574 5573 5575 5581 5588 5598 5611 5621 5630 5638 5645 5649 5652 5654 5657 5659 5659 5660 5660 5661 5660 5659 5658 5658 5660 5660 5658
5639 5637 5633 5631 5628 5625 5620 5612 5606 5600 5592 5586 5580 5576 5574 5572 5570 5567 5567 5574 5581 5589 5597 5608 5621 5630 5633 5638 5643 5645 5646 5647 5648 5648 5647 5648 5648 5647 5647 5648 5649 5648 5647
5646 5642 5640 5637 5633 5629 5623 5618 5614 5609 5602 5594 5588 5583 5577 5574 5570 5569 5569 5573 5578 5584 5593 5601 5614 5624 5627 5631 5633 5636 5637 5637 5637 5637 5637 5637 5638 5638 5638 5638 5637 5636 5634
5652 5649 5645 5641 5638 5634 5629 5624 5619 5615 5610 5605 5599 5592 5586 5583 5580 5579 5580 5582 5585 5590 5596 5605 5612 5617 5622 5623 5626 5627 5629 5630 5631 5630 5629 5629 5629 5628 5627 5626 5623 5621 5619
5655 5652 5649 5645 5642 5638 5634 5630 5626 5622 5619 5615 5609 5604 5599 5595 5591 5591 5592 5593 5595 5598 5602 5606 5611 5615 5618 5621 5620 5621 5623 5622 5621 5621 5620 5619 5617 5615 5613 5611 5607 5604 5600
5657 5654 5652 5648 5645 5641 5638 5634 5630 5626 5623 5619 5614 5611 5608 5605 5603 5601 5600 5603 5606 5607 5609 5611 5613 5614 5614 5615 5615 5615 5614 5613 5611 5609 5608 5606 5603 5600 5597 5593 5588 5585 5581
5658 5655 5653 5650 5646 5643 5639 5636 5632 5629 5625 5621 5618 5615 5612 5610 5607 5606 5605 5605 5606 5607 5608 5608 5608 5609 5609 5608 5607 5606 5604 5602 5600 5598 5594 5590 5587 5583 5578 5573 5569 5564 5558
5656 5653 5651 5648 5645 5642 5638 5635 5631 5628 5624 5622 5619 5616 5613 5610 5608 5606 5605 5605 5604 5603 5603 5602 5601 5600 5599 5598 5596 5594 5592 5589 5586 5582 5578 5574 5569 5564 5559 5554 5547 5542 5535
5652 5649 5647 5644 5641 5637 5634 5631 5628 5625 5622 5619 5616 5613 5610 5608 5605 5603 5600 5598 5596 5595 5593 5592 5591 5589 5588 5586 5583 5581 5577 5573 5569 5565 5560 5555 5550 5545 5539 5535 5529 5522 5516
5647 5644 5641 5638 5635 5632 5628 5625 5622 5619 5616 5612 5609 5606 5603 5600 5598 5595 5593 5591 5590 5588 5586 5584 5581 5578 5575 5572 5568 5564 5560 5555 5551 5546 5541 5536 5531 5526 5519 5514 5508 5502 5493
5641 5638 5635 5631 5628 5624 5621 5617 5614 5610 5607 5604 5601 5598 5595 5591 5589 5586 5584 5581 5578 5575 5572 5568 5565 5561 5557 5553 5550 5546 5542 5537 5532 5527 5522 5516 5511 5505 5499 5490 5484 5476 5468
5632 5628 5625 5621 5617 5614 5610 5607 5604 5600 5596 5592 5589 5586 5582 5579 5576 5574 5571 5568 5565 5562 5558 5553 5549 5545 5541 5537 5532 5527 5522 5517 5512 5506 5501 5495 5490 5483 5476 5469 5461 5453 5444
5622 5618 5615 5611 5607 5604 5600 5596 5592 5588 5584 5581 5577 5573 5569 5566 5563 5559 5556 5553 5549 5545 5541 5537 5532 5527 5522 5518 5513 5508 5504 5498 5492 5486 5481 5475 5469 5462 5455 5448 5440 5431 5422
5612 5607 5604 5600 5596 5592 5588 5584 5579 5575 5571 5566 5562 5558 5555 5550 5546 5542 5539 5535 5531 5528 5524 5519 5514 5509 5505 5500 5495 5489 5484 5479 5473 5467 5461 5456 5449 5442 5434 5428 5419 5409 5399
5600 5596 5592 5588 5583 5578 5574 5569 5564 5559 5554 5549 5544 5540 5536 5532 5527 5523 5519 5516 5513 5509 5505 5501 5496 5491 5486 5481 5476 5471 5466 5461 5455 5449 5443 5436 5428 5420 5413 5405 5397 5388 5377
5588 5584 5579 5574 5568 5562 5557 5551 5545 5540 5534 5529 5523 5519 5515 5511 5506 5501 5497 5493 5490 5486 5484 5480 5476 5471 5466 5462 5457 5452 5447 5441 5435 5429 5422 5415 5407 5399 5393 5386 5377 5366 5354
5576 5570 5563 5558 5550 5543 5536 5529 5523 5517 5511 5506 5501 5496 5491 5487 5482 5478 5475 5471 5467 5463 5461 5458 5454 5450 5446 5442 5438 5433 5428 5422 5415 5409 5403 5397 5389 5382 5375 5366 5356 5345 5335
5560 5553 5545 5538 5531 5523 5515 5508 5501 5495 5488 5482 5477 5472 5467 5463 5459 5455 5451 5447 5444 5442 5439 5437 5433 5429 5425 5421 5418 5414 5409 5404 5399 5393 5386 5379 5373 5366 5357 5347 5337 5329 5321
5542 5535 5528 5519 5510 5502 5495 5488 5480 5473 5466 5460 5454 5448 5444 5440 5437 5433 5429 5426 5424 5421 5418 5416 5412 5409 5406 5403 5400 5396 5392 5388 5383 5378 5371 5364 5357 5349 5340 5332 5324 5318 5312
5525 5517 5509 5500 5491 5482 5475 5468 5460 5453 5445 5437 5431 5426 5422 5419 5416 5414 5411 5408 5405 5403 5400 5397 5394 5392 5389 5386 5383 5381 5377 5373 5369 5364 5358 5351 5343 5336 5328 5321 5315 5309 5304
5508 5498 5488 5479 5472 5465 5458 5451 5441 5431 5421 5414 5411 5408 5405 5402 5399 5396 5393 5392 5389 5387 5384 5381 5378 5376 5374 5372 5370 5367 5364 5361 5356 5351 5345 5339 5332 5325 5318 5312 5308 5303 5296